Main page
METAR-TAF:

METAR-TAF

Airports :

Big Spring McMahon–Wrinkle Airport

Big Spring, Texas, United States

latitude: 32-12N, longitude: 101-31W, elevation: 2572 ft

Current weather observation

The report was made 1 hour and 42 minutes ago, at 22:35 UTC
Wind 6 mph from the South
Temperature 66°F
Humidity 28%
Pressure 30.01 in. Hg
Visibility: 10 miles
Clear sky

METAR: KBPG 042235Z AUTO 17005KT 10SM CLR 19/00 A3001 RMK AO2 T01900004

Time: 18:17 (00:17 UTC)


TAF: missing

Weather observations and forecasts of more than 4000 airports (METAR and TAF reports).

The available stations are represented by yellow and red dots on the map.

Hover mouse over dot to see the name of the station.

Then click to see weather observations and forecasts.

To change the map : click on the green buttons with a black cross to zoom in, on the green button with a dash to zoom out, or on the green arrows for adjacent maps.


METAR-TAF: